User: anonymous   Login
Location: 相模原市立博物館
(35.5593°N, 139.3931°E)
Time: 03:32:35
(UTC+09:00)
Language:

ISS - Orbit

View from above orbital plane
View from above orbital plane
View from above satellite
View from above satellite

Ground track
Ground track

The orbit data is extracted from the following two-line orbital elements,

1 25544U 98067A   21269.55166448 -.00030844  00000-0 -55689-3 0  9996
2 25544  51.6443 201.5340 0004314  26.4895 144.7158 15.48838397304302
Epoch (UTC): 26 September 2021 13:14:23
Eccentricity: 0.0004314
inclination: 51.6443°
perigee height: 417 km
apogee height: 423 km
right ascension of ascending node: 201.5340°
argument of perigee: 26.4895°
revolutions per day: 15.48838397
mean anomaly at epoch: 144.7158°
orbit number at epoch: 30430

The dashed part of the orbit path shows where the satellite is in the earth's shadow,  

DLR